TimePDT,TemperatureF,Dew PointF,Humidity,Sea Level PressureIn,VisibilityMPH,Wind Direction,Wind SpeedMPH,Gust SpeedMPH,PrecipitationIn,Events,Conditions,WindDirDegrees,DateUTC
12:55 AM,37.8,17.4,44,30.22,10.0,West,5.8,-,N/A,,Clear,270,2012-10-03 07:55:00
1:18 AM,35.6,17.6,48,30.23,10.0,NW,5.8,-,N/A,,Clear,320,2012-10-03 08:18:00
1:27 AM,35.6,17.6,48,30.25,10.0,NNW,5.8,-,N/A,,Scattered Clouds,330,2012-10-03 08:27:00
1:46 AM,37.4,19.4,48,30.24,10.0,NW,8.1,-,N/A,,Partly Cloudy,310,2012-10-03 08:46:00
1:55 AM,37.8,20.5,50,30.25,10.0,NNW,4.6,-,0.00,,Clear,330,2012-10-03 08:55:00
1:59 AM,37.4,23.0,56,30.25,10.0,North,4.6,-,N/A,,Clear,350,2012-10-03 08:59:00
2:34 AM,39.2,28.4,65,30.27,10.0,NW,8.1,-,N/A,,Clear,310,2012-10-03 09:34:00
2:51 AM,35.6,26.6,70,30.28,10.0,West,4.6,-,N/A,,Clear,270,2012-10-03 09:51:00
2:55 AM,36.3,25.9,66,30.28,10.0,West,3.5,-,0.00,,Clear,280,2012-10-03 09:55:00
3:55 AM,32.5,22.1,65,30.31,10.0,NW,8.1,-,0.00,,Clear,310,2012-10-03 10:55:00
4:07 AM,32.0,21.2,64,30.32,10.0,NW,9.2,-,N/A,,Clear,320,2012-10-03 11:07:00
4:55 AM,37.6,23.2,56,30.34,10.0,NNW,10.4,-,0.00,,Clear,340,2012-10-03 11:55:00
5:55 AM,36.0,24.3,63,30.36,10.0,North,9.2,-,N/A,,Clear,350,2012-10-03 12:55:00
6:55 AM,35.2,27.5,73,30.40,10.0,North,9.2,-,N/A,,Clear,350,2012-10-03 13:55:00
7:55 AM,39.7,27.9,63,30.42,10.0,North,6.9,-,N/A,,Clear,360,2012-10-03 14:55:00
8:55 AM,43.9,27.5,53,30.43,10.0,NNE,9.2,-,N/A,,Clear,20,2012-10-03 15:55:00
9:55 AM,47.1,29.5,50,30.45,10.0,NNE,10.4,-,N/A,,Clear,30,2012-10-03 16:55:00
10:55 AM,51.1,27.3,40,30.45,10.0,NE,10.4,-,N/A,,Clear,40,2012-10-03 17:55:00
11:55 AM,52.5,27.3,38,30.45,10.0,NE,9.2,-,N/A,,Clear,50,2012-10-03 18:55:00
12:55 PM,54.3,28.0,36,30.44,10.0,NE,8.1,-,N/A,,Clear,50,2012-10-03 19:55:00
1:55 PM,55.0,26.8,34,30.42,10.0,Variable,4.6,-,N/A,,Clear,0,2012-10-03 20:55:00
2:55 PM,56.5,26.4,32,30.40,10.0,ENE,9.2,17.3,N/A,,Clear,60,2012-10-03 21:55:00
3:55 PM,56.5,26.4,32,30.40,10.0,NE,8.1,-,N/A,,Clear,40,2012-10-03 22:55:00
4:55 PM,56.5,25.2,30,30.38,10.0,NNE,8.1,-,N/A,,Clear,30,2012-10-03 23:55:00
5:55 PM,54.0,25.0,33,30.39,10.0,NNE,9.2,-,N/A,,Clear,20,2012-10-04 00:55:00
6:55 PM,50.2,24.1,36,30.39,10.0,NNE,10.4,-,N/A,,Clear,30,2012-10-04 01:55:00
7:55 PM,47.7,24.1,40,30.38,10.0,NNE,8.1,-,N/A,,Clear,20,2012-10-04 02:55:00
8:55 PM,46.0,25.2,44,30.38,10.0,NNE,11.5,-,N/A,,Clear,30,2012-10-04 03:55:00
9:55 PM,41.9,26.1,53,30.37,10.0,NNE,8.1,-,N/A,,Clear,20,2012-10-04 04:55:00
10:55 PM,40.8,26.2,56,30.37,10.0,NNE,8.1,-,N/A,,Clear,20,2012-10-04 05:55:00
11:55 PM,40.1,26.6,59,30.36,10.0,North,9.2,-,N/A,,Clear,360,2012-10-04 06:55:00